Location: Newark
(39.8850°N, 17.2769°E)
Time: 21:52:00
(UTC+00:00)

Hubble Space Telescope - Pass Details

Date: 20 November 2019
Orbit: 536 x 540 km, 28.5° (Epoch: 08 December)

Event Time Altitude Azimuth Distance (km) Brightness Sun altitude
Rises 17:54:40 0° 235° (SW) 2,668 5.2 -27.3°
Reaches altitude 10° 17:57:37 10° 213° (SSW) 1,779 3.8 -27.8°
Enters shadow 17:58:43 14° 199° (SSW) 1,559 3.3 -28.0°
